When you browse on this site, cookies collect data to enhance your experience and personalize the content and advertising you see.
Visit our Privacy Policy to learn more. By continuing to use the site, you agree to this use of cookies and data.
  • In Czech Republic
  • List of Countries
  • For 7 days
  • Water Temperature
  • Satellite Maps
  • Weather Map
  • Weather Widgets
  • user-avatar
    Login

    Hourly Weather Millcreek

    Today, 17 February, Sunday

    Time Temperature Precipitation Wind Pressure Humidity
    00:00 -7°C° 0 mm 3 mps 643 mmHg 84%
    01:00 -7°C° 0 mm 3 mps 643 mmHg 84%
    02:00 -6°C° 0 mm 2 mps 643 mmHg 85%
    03:00 -7°C° 0 mm 2 mps 643 mmHg 83%
    04:00 -8°C° 0 mm 3 mps 643 mmHg 81%
    05:00 -9°C° 0 mm 3 mps 643 mmHg 80%
    06:00 -9°C° 0 mm 3 mps 643 mmHg 78%
    07:00 -9°C° 0 mm 3 mps 643 mmHg 77%
    08:00 -9°C° 0 mm 3 mps 643 mmHg 76%
    09:00 -6°C° 0 mm 2 mps 644 mmHg 72%
    10:00 -4°C° 0 mm 2 mps 644 mmHg 69%
    11:00 -2°C° 0 mm 2 mps 644 mmHg 66%
    12:00 +1°C° 0 mm 1 mps 644 mmHg 64%
    13:00 +1°C° 0 mm 1 mps 644 mmHg 62%
    14:00 +2°C° 0 mm 1 mps 644 mmHg 61%
    15:00 +1°C° 0.1 mm 1 mps 644 mmHg 64%
    16:00 +1°C° 0.1 mm 1 mps 644 mmHg 68%
    17:00 0°C° 0.1 mm 1 mps 644 mmHg 71%
    18:00 0°C° 0.1 mm 1 mps 644 mmHg 74%
    19:00 -1°C° 0.1 mm 1 mps 644 mmHg 77%
    20:00 -4°C° 0.1 mm 2 mps 645 mmHg 80%
    21:00 -5°C° 0 mm 2 mps 645 mmHg 79%
    22:00 -5°C° 0 mm 2 mps 645 mmHg 78%
    23:00 -6°C° 0 mm 2 mps 645 mmHg 77%

    Tomorrow, 18 February, Monday

    Time Temperature Precipitation Wind Pressure Humidity
    00:00 -7°C° 0 mm 2 mps 645 mmHg 76%
    01:00 -7°C° 0 mm 2 mps 645 mmHg 74%
    02:00 -8°C° 0 mm 2 mps 645 mmHg 72%
    03:00 -8°C° 0 mm 2 mps 645 mmHg 70%
    04:00 -9°C° 0 mm 2 mps 645 mmHg 69%
    05:00 -9°C° 0 mm 2 mps 645 mmHg 67%
    06:00 -9°C° 0 mm 2 mps 646 mmHg 67%
    07:00 -9°C° 0 mm 2 mps 646 mmHg 67%
    08:00 -9°C° 0 mm 2 mps 647 mmHg 66%
    09:00 -8°C° 0 mm 2 mps 647 mmHg 65%
    10:00 -6°C° 0 mm 2 mps 647 mmHg 64%
    11:00 -5°C° 0 mm 2 mps 648 mmHg 63%
    12:00 -4°C° 0 mm 2 mps 648 mmHg 64%
    13:00 -4°C° 0 mm 2 mps 647 mmHg 65%
    14:00 -3°C° 0 mm 2 mps 647 mmHg 66%
    15:00 -4°C° 0 mm 2 mps 647 mmHg 68%
    16:00 -4°C° 0 mm 2 mps 647 mmHg 71%
    17:00 -4°C° 0 mm 2 mps 647 mmHg 73%
    18:00 -6°C° 0 mm 2 mps 647 mmHg 74%
    19:00 -7°C° 0 mm 2 mps 647 mmHg 76%
    20:00 -8°C° 0 mm 2 mps 648 mmHg 77%
    21:00 -9°C° 0 mm 2 mps 648 mmHg 76%
    22:00 -9°C° 0 mm 2 mps 648 mmHg 75%
    23:00 -10°C° 0 mm 2 mps 648 mmHg 74%

    Day after tomorrow, 19 February, Tuesday

    Time Temperature Precipitation Wind Pressure Humidity
    00:00 -10°C° 0 mm 2 mps 648 mmHg 72%
    01:00 -12°C° 0 mm 2 mps 647 mmHg 71%
    02:00 -12°C° 0 mm 2 mps 647 mmHg 70%
    03:00 -12°C° 0 mm 2 mps 647 mmHg 70%
    04:00 -13°C° 0 mm 2 mps 647 mmHg 70%
    05:00 -13°C° 0 mm 2 mps 647 mmHg 70%
    06:00 -13°C° 0 mm 2 mps 647 mmHg 71%
    07:00 -10°C° 0 mm 1 mps 647 mmHg 72%
    08:00 -10°C° 0 mm 1 mps 648 mmHg 73%
    09:00 -10°C° 0 mm 2 mps 648 mmHg 72%
    10:00 -8°C° 0 mm 2 mps 648 mmHg 72%
    11:00 -6°C° 0 mm 2 mps 648 mmHg 72%
    12:00 -6°C° 0 mm 2 mps 647 mmHg 71%
    13:00 -6°C° 0 mm 2 mps 647 mmHg 71%
    14:00 -6°C° 0 mm 3 mps 646 mmHg 70%
    15:00 -5°C° 0 mm 2 mps 646 mmHg 71%
    16:00 -6°C° 0 mm 2 mps 645 mmHg 71%
    17:00 -6°C° 0 mm 2 mps 645 mmHg 72%
    18:00 -6°C° 0 mm 1 mps 645 mmHg 74%
    19:00 -7°C° 0 mm 1 mps 645 mmHg 76%
    20:00 -8°C° 0 mm 1 mps 645 mmHg 77%
    21:00 -9°C° 0 mm 1 mps 645 mmHg 77%
    22:00 -9°C° 0 mm 1 mps 645 mmHg 76%
    23:00 -9°C° 0 mm 1 mps 645 mmHg 76%

    20 February, Wednesday

    Time Temperature Precipitation Wind Pressure Humidity
    00:00 -9°C° 0 mm 2 mps 645 mmHg 75%
    01:00 -9°C° 0 mm 2 mps 645 mmHg 75%
    02:00 -9°C° 0 mm 2 mps 644 mmHg 74%
    03:00 -10°C° 0.1 mm 3 mps 644 mmHg 75%
    04:00 -10°C° 0.1 mm 3 mps 644 mmHg 76%
    05:00 -9°C° 0.1 mm 3 mps 643 mmHg 77%
    06:00 -9°C° 0.1 mm 3 mps 643 mmHg 77%
    07:00 -9°C° 0.1 mm 3 mps 643 mmHg 76%
    08:00 -9°C° 0.1 mm 3 mps 643 mmHg 76%
    09:00 -8°C° 0 mm 3 mps 642 mmHg 73%
    10:00 -7°C° 0 mm 3 mps 642 mmHg 71%
    11:00 -5°C° 0 mm 3 mps 642 mmHg 68%
    12:00 -5°C° 0 mm 3 mps 642 mmHg 66%
    13:00 -4°C° 0 mm 3 mps 641 mmHg 65%
    14:00 -2°C° 0 mm 3 mps 641 mmHg 63%
    15:00 -2°C° 0 mm 2 mps 641 mmHg 65%
    16:00 -3°C° 0 mm 2 mps 640 mmHg 67%
    17:00 -3°C° 0 mm 2 mps 640 mmHg 68%
    18:00 -4°C° 0 mm 2 mps 640 mmHg 69%
    19:00 -3°C° 0 mm 1 mps 640 mmHg 71%
    20:00 -4°C° 0 mm 1 mps 640 mmHg 72%
    21:00 -4°C° 0 mm 1 mps 640 mmHg 72%
    22:00 -6°C° 0 mm 2 mps 640 mmHg 73%
    23:00 -6°C° 0 mm 2 mps 640 mmHg 73%

    21 February, Thursday

    Time Temperature Precipitation Wind Pressure Humidity
    00:00 -7°C° 0 mm 2 mps 640 mmHg 72%
    01:00 -7°C° 0 mm 2 mps 640 mmHg 71%
    02:00 -7°C° 0 mm 2 mps 640 mmHg 70%
    03:00 -7°C° 0 mm 2 mps 640 mmHg 69%
    04:00 -8°C° 0 mm 2 mps 640 mmHg 68%
    05:00 -8°C° 0 mm 2 mps 640 mmHg 67%
    06:00 -8°C° 0 mm 2 mps 640 mmHg 67%
    07:00 -8°C° 0 mm 2 mps 640 mmHg 67%
    08:00 -8°C° 0 mm 2 mps 641 mmHg 67%
    09:00 -6°C° 0 mm 2 mps 641 mmHg 64%
    10:00 -5°C° 0 mm 2 mps 641 mmHg 61%
    11:00 -3°C° 0 mm 2 mps 641 mmHg 59%
    12:00 -2°C° 0 mm 2 mps 641 mmHg 60%
    13:00 -2°C° 0 mm 2 mps 641 mmHg 60%
    14:00 -1°C° 0 mm 2 mps 641 mmHg 61%
    15:00 -2°C° 0 mm 2 mps 641 mmHg 65%
    16:00 -2°C° 0 mm 3 mps 641 mmHg 68%
    17:00 -4°C° 0 mm 3 mps 641 mmHg 72%
    18:00 -5°C° 0 mm 3 mps 642 mmHg 73%
    19:00 -6°C° 0 mm 3 mps 642 mmHg 74%
    20:00 -6°C° 0 mm 2 mps 642 mmHg 75%
    21:00 -7°C° 0 mm 2 mps 643 mmHg 74%
    22:00 -7°C° 0 mm 2 mps 643 mmHg 74%
    23:00 -8°C° 0 mm 2 mps 643 mmHg 73%

    22 February, Friday

    Time Temperature Precipitation Wind Pressure Humidity
    00:00 -9°C° 0 mm 3 mps 644 mmHg 72%
    01:00 -10°C° 0 mm 3 mps 644 mmHg 71%
    02:00 -12°C° 0 mm 3 mps 644 mmHg 70%
    03:00 -10°C° 0 mm 2 mps 644 mmHg 69%
    04:00 -12°C° 0 mm 2 mps 645 mmHg 69%
    05:00 -12°C° 0 mm 2 mps 645 mmHg 68%
    06:00 -12°C° 0 mm 2 mps 646 mmHg 68%
    07:00 -12°C° 0 mm 2 mps 646 mmHg 68%
    08:00 -12°C° 0 mm 2 mps 647 mmHg 67%
    09:00 -9°C° 0 mm 2 mps 648 mmHg 66%
    10:00 -6°C° 0 mm 1 mps 648 mmHg 65%
    11:00 -3°C° 0 mm 1 mps 649 mmHg 63%
    12:00 -3°C° 0 mm 1 mps 649 mmHg 63%
    13:00 -4°C° 0 mm 2 mps 649 mmHg 63%
    14:00 -3°C° 0 mm 2 mps 649 mmHg 62%
    15:00 -3°C° 0 mm 2 mps 649 mmHg 64%
    16:00 -4°C° 0 mm 2 mps 649 mmHg 66%
    17:00 -2°C° 0 mm 1 mps 649 mmHg 68%
    18:00 -4°C° 0 mm 1 mps 649 mmHg 70%
    19:00 -6°C° 0 mm 1 mps 650 mmHg 72%
    20:00 -7°C° 0 mm 1 mps 650 mmHg 73%
    21:00 -7°C° 0 mm 1 mps 650 mmHg 71%
    22:00 -7°C° 0 mm 1 mps 650 mmHg 69%
    23:00 -8°C° 0 mm 2 mps 651 mmHg 67%
    Show more